1529492400.92,47983,20.94,74834.3,17.75,7.15,6.69,0,*42
1529492402.17,47984,21.0,74832.3,17.73,5.93,5.23,0,*42
1529492403.36,47985,21.0,74832.3,17.69,6.33,5.49,0,*4D
1529492404.56,47986,20.94,74828.8,17.69,7.77,6.79,0,*4F
1529492405.74,47987,20.94,74828.0,17.69,7.45,6.21,0,*42
1529492406.97,47988,20.94,74830.3,17.69,6.53,5.27,0,*4E
1529492408.19,47989,20.94,74830.0,17.65,6.25,4.97,0,*48
1529492409.39,47990,21.0,74832.8,17.65,7.15,6.25,0,*49
1529492410.63,47991,20.94,74826.3,17.65,7.11,6.35,0,*4D
1529492411.86,47992,21.0,74824.3,17.67,6.93,6.35,0,*47
1529492413.07,47993,20.94,74824.3,17.65,6.13,5.45,0,*48
1529492414.3,47994,21.0,74824.3,17.65,7.23,6.73,0,*4B
1529492415.5,47995,21.0,74822.0,17.65,7.79,7.23,0,*41
1529492416.75,47996,21.0,74826.0,17.67,7.87,7.15,0,*44
1529492417.97,47997,20.94,74824.5,17.67,7.97,7.27,0,*45
1529492419.2,47998,21.0,74828.5,17.67,7.83,6.97,0,*45
1529492420.45,47999,20.94,74826.0,17.67,7.95,6.73,0,*49
1529492421.7,48000,20.94,74828.0,17.67,7.83,6.39,0,*46
1529492422.88,48001,21.0,74834.8,17.69,7.29,5.63,0,*45
1529492424.08,48002,20.94,74830.8,17.67,7.45,5.71,0,*41
1529492425.3,48003,21.0,74832.0,17.67,7.29,5.59,0,*40
1529492426.53,48004,20.94,74828.0,17.65,7.73,6.13,0,*47
1529492427.76,48005,21.0,74834.8,17.67,6.47,4.89,0,*43
1529492429.0,48006,20.94,74830.0,17.65,4.75,3.41,0,*42
1529492430.18,48007,21.0,74834.3,17.61,5.71,4.33,0,*40
1529492431.41,48008,20.94,74828.0,17.59,4.41,3.03,0,*42
1529492432.63,48009,20.94,74830.3,17.57,5.01,3.93,0,*41
1529492433.82,48010,20.94,74828.8,17.53,5.27,4.49,0,*49
1529492435.0,48011,21.0,74830.0,17.53,5.15,4.57,0,*46
1529492436.23,48012,21.0,74826.8,17.49,5.27,4.79,0,*43
1529492437.44,48013,21.0,74826.0,17.49,6.03,5.73,0,*4C
1529492438.7,48014,21.0,74826.3,17.43,6.17,5.89,0,*41
1529492439.93,48015,21.0,74820.0,17.41,6.69,6.65,0,*4A
1529492441.13,48016,21.0,74824.0,17.41,8.01,7.83,0,*40
1529492442.34,48017,21.0,74820.8,17.41,8.37,8.23,0,*41
1529492443.54,48018,20.94,74820.5,17.41,7.79,7.47,0,*46
1529492444.75,48019,21.0,74822.3,17.41,7.55,7.15,0,*4E
1529492445.96,48020,21.0,74820.0,17.41,7.47,6.97,0,*4C
1529492447.17,48021,21.0,74820.5,17.41,8.13,7.45,0,*4D
1529492448.39,48022,21.0,74820.3,17.39,7.87,7.05,0,*47
1529492449.62,48023,21.0,74822.3,17.39,7.77,7.05,0,*49
1529492450.83,48024,21.0,74820.0,17.39,8.19,7.55,0,*4C
1529492452.06,48025,20.94,74816.8,17.39,7.51,6.87,0,*40
1529492453.29,48026,20.94,74816.5,17.37,7.77,7.19,0,*4F
1529492454.5,48027,21.0,74820.8,17.35,6.79,6.11,0,*4A
1529492455.74,48028,21.0,74824.3,17.35,6.61,6.11,0,*4C
1529492456.93,48029,20.94,74822.8,17.33,6.21,5.19,0,*44
1529492458.16,48030,21.0,74820.3,17.31,6.83,5.73,0,*4A
1529492459.42,48031,20.94,74820.0,17.31,7.65,6.65,0,*46
1529492460.62,48032,20.94,74818.3,17.31,7.45,6.29,0,*4F
1529492461.85,48033,21.0,74818.8,17.31,7.91,6.75,0,*4E
1529492463.08,48034,20.94,74818.5,17.31,9.63,8.47,0,*45
1529492464.31,48035,21.0,74818.5,17.37,9.57,8.29,0,*4D
1529492465.54,48036,20.94,74818.8,17.37,9.89,8.51,0,*42
1529492466.75,48037,21.0,74822.5,17.41,9.01,7.45,0,*48
1529492467.98,48038,20.94,74822.3,17.43,8.69,6.91,0,*42
1529492469.18,48039,20.94,74820.0,17.43,8.45,6.83,0,*4E
1529492470.39,48040,21.0,74824.8,17.45,8.19,6.35,0,*42
1529492471.61,48041,21.0,74826.5,17.49,8.29,6.61,0,*4D
1529492472.8,48042,21.0,74826.0,17.45,7.79,6.03,0,*4C
1529492473.99,48043,21.0,74824.0,17.45,7.59,5.71,0,*49
1529492475.2,48044,20.94,74826.0,17.45,7.83,6.03,0,*4F
1529492476.39,48045,21.0,74828.5,17.45,8.27,6.25,0,*4B
1529492477.6,48046,21.0,74830.5,17.45,8.87,6.73,0,*41
1529492478.77,48047,21.0,74828.5,17.45,9.63,7.41,0,*4B
1529492480.01,48048,21.0,74830.3,17.51,10.03,7.69,0,*75
1529492481.25,48049,20.94,74828.5,17.55,10.37,8.27,0,*72
1529492482.49,48050,21.0,74830.0,17.59,11.37,9.47,0,*70
1529492483.74,48051,20.94,74826.3,17.63,12.03,10.37,0,*43
1529492485.01,48052,21.0,74828.5,17.73,12.71,10.65,0,*43
1529492486.26,48053,21.0,74830.3,17.77,12.43,10.27,0,*41
1529492487.51,48054,21.0,74834.3,17.85,11.95,10.05,0,*43
1529492488.72,48055,21.0,74832.0,17.95,11.93,10.13,0,*42
1529492489.97,48056,21.0,74832.8,18.01,11.27,9.35,0,*70
1529492491.18,48057,21.0,74832.0,18.07,9.25,7.01,0,*45
1529492492.43,48058,21.0,74834.5,18.11,10.37,8.71,0,*7E
1529492493.64,48059,21.0,74832.3,18.21,9.57,6.93,0,*40
1529492494.84,48060,21.0,74832.8,18.25,8.01,5.73,0,*41
1529492496.07,48061,21.0,74832.5,18.31,8.33,6.29,0,*48
1529492497.27,48062,21.0,74828.8,18.37,9.67,8.05,0,*4D
1529492498.53,48063,20.94,74830.5,18.45,8.71,6.47,0,*47
1529492499.73,48064,21.0,74832.5,18.51,7.11,4.89,0,*4C
1529492500.98,48065,21.0,74832.5,18.53,3.97,1.97,0,*4F
1529492502.21,48066,21.0,74832.0,18.57,5.11,4.05,0,*4E
1529492503.46,48067,21.0,74834.5,18.57,5.55,4.31,0,*48
1529492504.69,48068,21.0,74832.0,18.63,7.47,6.35,0,*47
1529492505.9,48069,21.0,74834.5,18.67,9.03,8.37,0,*40
1529492507.15,48070,21.0,74832.3,18.75,10.37,10.13,0,*4B
1529492508.4,48071,21.0,74832.8,18.87,10.79,10.93,0,*45
1529492509.61,48072,21.0,74836.3,18.99,10.51,11.47,0,*4B
1529492510.83,48073,21.0,74832.3,19.11,10.05,11.61,0,*4E
1529492512.07,48074,21.0,74836.0,19.17,8.51,10.47,0,*72
1529492513.27,48075,21.0,74836.0,19.23,6.53,8.23,0,*43
1529492514.46,48076,21.0,74832.0,19.25,5.49,7.33,0,*40
1529492515.64,48077,21.0,74834.0,19.27,4.53,6.25,0,*4F
1529492516.85,48078,21.0,74832.3,19.27,5.01,6.25,0,*46
1529492518.04,48079,21.0,74832.3,19.27,5.33,6.57,0,*43
1529492519.22,48080,21.0,74832.0,19.27,6.03,7.05,0,*43
1529492520.42,48081,21.0,74832.5,19.27,6.83,7.47,0,*4C
1529492521.65,48082,21.0,74832.8,19.31,7.87,8.55,0,*41
1529492522.82,48083,21.0,74834.5,19.31,8.45,8.69,0,*4E
1529492524.06,48084,21.0,74832.8,19.33,9.11,9.01,0,*44
1529492525.27,48085,21.0,74836.0,19.35,8.79,8.27,0,*49
1529492526.49,48086,21.0,74830.8,19.35,9.95,9.11,0,*4D
1529492527.73,48087,21.0,74836.0,19.37,10.19,9.15,0,*76
1529492528.95,48088,21.0,74834.0,19.41,10.09,9.19,0,*75
1529492530.16,48089,21.0,74832.0,19.41,10.19,9.43,0,*7A
1529492531.42,48090,21.0,74832.0,19.43,9.77,9.01,0,*46
1529492532.65,48091,21.0,74832.3,19.45,9.77,9.15,0,*44
1529492533.91,48092,21.0,74832.5,19.47,8.37,7.69,0,*45
1529492535.12,48093,21.0,74832.3,19.49,8.45,7.73,0,*44
1529492536.31,48094,21.0,74830.3,19.49,8.79,8.09,0,*4E
1529492537.51,48095,21.0,74830.3,19.53,8.65,7.91,0,*47
1529492538.7,48096,21.0,74832.8,19.57,9.07,7.79,0,*43
1529492539.92,48097,21.0,74834.5,19.59,9.03,7.47,0,*45
1529492541.15,48098,21.0,74832.8,19.59,8.71,6.83,0,*47
1529492542.33,48099,21.0,74836.8,19.61,10.85,9.21,0,*78
1529492543.6,48100,21.0,74834.0,19.69,11.03,9.49,0,*70
1529492544.81,48101,21.0,74832.3,19.75,10.33,9.39,0,*79
1529492546.04,48102,21.0,74832.3,19.81,9.63,8.51,0,*43
1529492547.27,48103,21.0,74836.3,19.87,9.49,8.29,0,*43
1529492548.47,48104,21.0,74832.5,19.91,8.45,7.23,0,*4B
1529492549.72,48105,21.0,74838.5,19.93,7.65,6.17,0,*43
1529492550.93,48106,21.0,74836.8,19.95,8.01,6.47,0,*4E
1529492552.19,48107,21.0,74838.0,20.01,8.13,6.87,0,*47
1529492553.39,48108,21.0,74836.5,20.07,9.61,8.27,0,*4E
1529492554.63,48109,21.0,74836.8,20.13,10.83,9.21,0,*79
1529492555.82,48110,21.0,74836.5,20.23,10.33,9.33,0,*7A
1529492557.09,48111,21.0,74840.5,20.31,9.89,9.81,0,*48
1529492558.35,48112,21.0,74840.0,20.39,9.01,9.19,0,*42
1529492559.59,48113,21.0,74840.5,20.47,7.79,8.47,0,*41
1529492560.79,48114,21.0,74838.8,20.53,7.23,8.23,0,*4E
1529492561.97,48115,21.0,74838.5,20.57,6.79,7.97,0,*45
1529492563.19,48116,21.0,74838.0,20.59,5.33,6.53,0,*4C
1529492564.37,48117,21.0,74832.0,20.63,5.67,7.09,0,*4B
1529492565.57,48118,21.0,74836.5,20.67,4.53,5.93,0,*47
1529492566.81,48119,21.0,74836.3,20.67,2.39,3.79,0,*4E
1529492568.01,48120,21.0,74834.8,20.67,-0.29,1.55,0,*56
1529492569.22,48121,21.0,74838.5,20.63,-0.41,1.85,0,*50
1529492570.44,48122,21.0,74834.8,20.59,0.33,2.61,0,*7B
1529492571.67,48123,21.0,74834.3,20.59,-0.03,2.05,0,*66
1529492572.88,48124,21.0,74834.3,20.57,0.67,2.47,0,*76
1529492574.12,48125,21.0,74832.3,20.55,1.01,2.81,0,*4E
1529492575.32,48126,21.0,74832.0,20.53,0.59,2.65,0,*7D
1529492576.54,48127,21.0,74830.0,20.53,1.43,3.53,0,*42
1529492577.79,48128,21.0,74828.0,20.51,1.47,3.41,0,*48
1529492579.0,48129,21.0,74820.8,20.49,1.01,2.69,0,*49
1529492580.26,48130,21.0,74822.3,20.47,1.97,3.45,0,*4F
1529492581.48,48131,21.0,74824.5,20.45,2.69,4.01,0,*49
1529492582.74,48132,21.0,74822.0,20.43,3.53,4.79,0,*4B
1529492583.94,48133,21.0,74820.0,20.45,4.23,5.05,0,*46
1529492585.15,48134,21.0,74822.3,20.43,3.85,4.53,0,*4E
1529492586.36,48135,21.0,74820.8,20.43,3.25,3.81,0,*4D
1529492587.53,48136,21.0,74822.5,20.45,3.63,4.27,0,*41
1529492588.78,48137,21.0,74826.3,20.43,2.89,3.53,0,*47
1529492590.01,48138,21.0,74826.3,20.39,1.59,2.35,0,*4A
1529492591.21,48139,21.0,74824.8,20.37,1.05,1.93,0,*43
1529492592.42,48140,21.0,74826.3,20.35,-1.59,-0.69,0,*72
1529492593.61,48141,21.0,74824.8,20.29,-2.27,-1.17,0,*4C
1529492594.85,48142,21.0,74824.8,20.25,-1.99,-0.57,0,*70
1529492596.11,48143,21.0,74824.3,20.21,-1.01,0.75,0,*59
1529492597.32,48144,21.0,74826.3,20.15,-0.53,1.29,0,*57
1529492598.52,48145,21.0,74820.3,20.15,0.09,1.63,0,*4A
1529492599.73,48146,21.0,74824.0,20.11,-1.17,0.25,0,*5D
1529492600.95,48147,21.0,74826.5,20.07,-0.93,0.67,0,*60
1529492602.15,48148,21.0,74830.0,20.03,-0.49,0.87,0,*62
1529492603.36,48149,21.0,74830.5,20.03,0.97,2.43,0,*77
1529492604.59,48150,21.0,74830.0,20.01,2.39,3.85,0,*40
1529492605.85,48151,21.0,74828.3,20.01,2.43,4.05,0,*43
1529492607.05,48152,21.0,74832.5,20.03,3.53,5.37,0,*42
1529492608.29,48153,21.0,74826.3,20.05,2.91,4.79,0,*41
1529492609.5,48154,21.0,74830.3,20.03,2.39,4.23,0,*4D
1529492610.72,48155,21.0,74830.0,20.05,0.87,2.31,0,*78
1529492611.96,48156,21.0,74826.8,20.03,1.37,2.69,0,*4A
1529492613.18,48157,21.0,74830.0,20.03,0.87,1.25,0,*7A
1529492614.38,48158,21.0,74824.3,20.03,-0.49,0.13,0,*6E
1529492615.62,48159,21.0,74828.3,20.01,-1.09,-0.11,0,*77
1529492616.8,48160,21.0,74830.0,19.99,-0.07,0.43,0,*53
1529492618.02,48161,21.0,74830.5,19.93,0.55,0.97,0,*4B
1529492619.26,48162,21.0,74830.5,19.93,-1.47,-0.73,0,*70
1529492620.48,48163,21.0,74834.3,19.91,-0.27,0.37,0,*69
1529492621.7,48164,21.0,74828.5,19.87,0.21,0.21,0,*45
1529492622.96,48165,21.0,74832.5,19.85,1.25,0.55,0,*70
1529492624.19,48166,21.0,74834.8,19.85,2.31,1.85,0,*49
1529492625.39,48167,21.0,74832.0,19.87,3.29,2.55,0,*4C
1529492626.64,48168,21.0,74834.8,19.85,2.21,1.25,0,*4C
1529492627.9,48169,21.0,74832.3,19.85,1.85,1.25,0,*40
1529492629.15,48170,21.0,74832.5,19.85,1.97,1.29,0,*47
1529492630.4,48171,21.0,74832.5,19.85,2.43,2.69,0,*4B
1529492631.64,48172,21.0,74834.3,19.85,3.25,2.81,0,*4F
1529492632.87,48173,21.0,74834.5,19.85,2.47,1.75,0,*43
1529492634.12,48174,21.0,74834.0,19.85,1.25,0.51,0,*74
1529492635.32,48175,21.0,74830.0,19.83,0.17,-0.15,0,*6E
1529492636.53,48176,21.0,74826.0,19.81,-0.49,-0.81,0,*44
1529492637.75,48177,21.0,74828.0,19.77,-1.51,-1.71,0,*4A
1529492638.97,48178,21.0,74824.8,19.71,-1.21,-1.43,0,*45
1529492640.14,48179,21.0,74828.3,19.67,0.43,-0.03,0,*5E
1529492641.39,48180,21.0,74824.5,19.63,1.85,1.33,0,*48
1529492642.62,48181,21.0,74824.0,19.63,2.65,1.93,0,*4E
1529492643.87,48182,21.0,74830.5,19.63,1.85,1.37,0,*4E
1529492645.13,48183,21.0,74828.8,19.59,3.11,2.09,0,*47
1529492646.38,48184,21.0,74828.3,19.59,1.63,0.83,0,*77
1529492647.6,48185,21.0,74826.5,19.57,3.19,2.47,0,*4D
1529492648.85,48186,21.0,74828.8,19.55,2.25,1.13,0,*40
1529492650.11,48187,21.0,74828.3,19.55,3.03,1.71,0,*40
1529492651.31,48188,21.0,74828.3,19.53,4.49,3.07,0,*43
1529492652.5,48189,21.0,74830.8,19.53,5.29,3.67,0,*43
1529492653.7,48190,21.0,74828.0,19.53,5.59,3.53,0,*4B
1529492654.91,48191,21.0,74828.0,19.53,5.19,2.43,0,*4E
1529492656.1,48192,21.0,74828.0,19.53,5.37,2.21,0,*45
1529492657.31,48193,21.0,74824.5,19.53,4.89,1.09,0,*49
1529492658.53,48194,21.0,74828.8,19.53,4.93,0.63,0,*78
1529492659.72,48195,21.0,74824.0,19.53,3.25,-1.55,0,*6A
1529492660.94,48196,21.0,74828.8,19.49,2.31,-2.67,0,*64
1529492662.17,48197,21.0,74824.0,19.49,2.85,-1.87,0,*67
1529492663.38,48198,21.0,74828.3,19.47,4.23,-0.65,0,*51
1529492664.58,48199,21.0,74830.8,19.47,4.37,-0.03,0,*65
1529492665.78,48200,21.0,74824.0,19.49,4.15,-0.37,0,*5F
1529492666.99,48201,21.0,74830.0,19.53,1.71,-2.83,0,*6F
1529492668.19,48202,21.0,74826.5,19.49,2.61,-0.85,0,*51
1529492669.43,48203,21.0,74830.0,19.53,2.09,-1.35,0,*6F
1529492670.63,48204,21.0,74820.8,19.49,3.33,0.97,0,*7F
1529492671.86,48205,21.0,74830.3,19.53,2.81,0.91,0,*7B
1529492673.04,48206,21.0,74826.8,19.57,5.33,4.49,0,*43
1529492674.25,48207,21.0,74824.8,19.61,6.35,5.71,0,*48
1529492675.48,48208,21.0,74828.8,19.69,5.71,4.67,0,*4A
1529492676.71,48209,21.0,74826.5,19.69,4.41,3.37,0,*4B
1529492677.92,48210,21.0,74824.0,19.71,4.79,4.07,0,*45
1529492679.13,48211,21.0,74824.5,19.79,6.39,6.03,0,*4C
1529492680.36,48212,21.0,74824.8,19.83,7.87,7.69,0,*43
1529492681.57,48213,21.0,74824.3,19.89,7.59,7.97,0,*4A
1529492682.77,48214,21.0,74824.5,19.95,6.07,6.47,0,*46
1529492684.03,48215,21.0,74826.5,20.01,4.63,5.55,0,*40
1529492685.27,48216,21.0,74828.0,20.05,4.59,5.63,0,*4B
1529492686.53,48217,21.0,74824.8,20.05,4.01,4.93,0,*49
1529492687.71,48218,21.0,74830.5,20.07,4.41,5.45,0,*4A
1529492688.89,48219,21.0,74826.8,20.11,4.45,5.33,0,*49
1529492690.13,48220,21.0,74822.0,20.11,4.05,4.67,0,*47
1529492691.33,48221,21.0,74820.5,20.13,3.63,3.89,0,*44
1529492692.57,48222,21.0,74826.3,20.11,3.23,2.39,0,*4B
1529492693.77,48223,21.0,74824.5,20.07,1.75,0.29,0,*7F
1529492694.98,48224,21.0,74826.5,20.07,3.59,2.05,0,*48
1529492696.23,48225,21.0,74826.3,20.09,4.97,3.23,0,*47
1529492697.45,48226,21.0,74824.5,20.13,5.29,4.01,0,*4C
1529492698.69,48227,21.0,74830.3,20.17,3.93,3.07,0,*4F
1529492699.89,48228,21.0,74826.5,20.23,4.11,3.79,0,*43
1529492701.14,48229,21.0,74828.5,20.25,2.55,2.21,0,*4E
1529492702.35,48230,21.0,74826.0,20.29,3.71,4.07,0,*4F
1529492703.59,48231,21.0,74828.0,20.33,3.03,2.81,0,*48
1529492704.8,48232,21.0,74830.0,20.33,1.51,2.35,0,*41
1529492706.02,48233,21.0,74830.5,20.35,-0.07,0.67,0,*5C
1529492707.25,48234,21.0,74828.8,20.33,-0.27,1.13,0,*5D
1529492708.48,48235,21.0,74830.0,20.33,0.51,2.47,0,*72
1529492709.7,48236,21.0,74828.3,20.35,1.89,4.15,0,*42
1529492710.91,48237,21.0,74830.8,20.35,3.85,6.07,0,*4C
1529492712.15,48238,21.06,74832.3,20.35,2.35,4.71,0,*4A
1529492713.38,48239,21.0,74830.0,20.35,4.27,6.69,0,*45
1529492714.64,48240,21.0,74828.8,20.39,6.13,8.51,0,*47
1529492715.87,48241,21.0,74830.3,20.39,6.11,8.41,0,*45
1529492717.06,48242,21.0,74826.8,20.45,6.93,8.83,0,*49
1529492718.24,48243,21.0,74830.0,20.45,7.05,9.03,0,*4F
1529492719.41,48244,21.0,74828.3,20.49,8.05,9.67,0,*49
1529492720.63,48245,21.0,74830.0,20.49,8.19,9.49,0,*49
1529492721.81,48246,21.0,74830.8,20.49,8.27,9.33,0,*4A
1529492723.04,48247,21.0,74828.5,20.51,8.75,9.67,0,*44
1529492724.24,48248,21.0,74830.3,20.53,8.59,9.47,0,*45
1529492725.46,48249,21.0,74830.0,20.53,8.29,9.15,0,*44
1529492726.72,48250,21.0,74830.3,20.55,8.51,9.35,0,*47
1529492727.97,48251,21.0,74828.3,20.55,9.11,9.77,0,*45
1529492729.19,48252,21.0,74828.0,20.57,9.71,10.31,0,*78
1529492730.43,48253,21.0,74830.8,20.59,10.33,10.75,0,*49
1529492731.64,48254,21.0,74830.8,20.61,9.99,10.43,0,*78
1529492732.84,48255,21.0,74830.5,20.67,10.05,10.51,0,*41
1529492734.1,48256,21.0,74830.3,20.69,10.83,11.41,0,*42
1529492735.31,48257,21.06,74832.5,20.71,10.79,11.65,0,*49
1529492736.57,48258,21.06,74830.8,20.75,11.41,12.33,0,*48
1529492737.75,48259,21.0,74828.3,20.79,10.55,11.81,0,*4B
1529492738.98,48260,21.0,74828.0,20.83,10.99,12.33,0,*4E
1529492740.21,48261,21.0,74830.8,20.89,9.89,11.47,0,*7C
1529492741.42,48262,21.0,74824.8,20.91,8.29,10.05,0,*7A
1529492742.63,48263,21.06,74830.3,20.93,9.53,11.51,0,*75
1529492743.86,48264,21.06,74828.3,20.93,9.53,11.61,0,*71
1529492745.06,48265,21.06,74832.0,20.97,9.75,11.79,0,*79
1529492746.32,48266,21.0,74828.0,20.99,9.19,11.31,0,*72
1529492747.53,48267,21.06,74828.5,21.01,8.09,10.23,0,*71
1529492748.79,48268,21.06,74828.8,20.99,6.17,8.33,0,*47
1529492749.99,48269,21.06,74830.0,20.99,5.37,7.29,0,*43
1529492751.19,48270,21.06,74826.3,20.95,5.19,7.05,0,*45
1529492752.39,48271,21.0,74826.5,20.91,4.19,6.13,0,*47
1529492753.6,48272,21.0,74826.0,20.89,4.57,6.73,0,*41
1529492754.82,48273,21.0,74824.0,20.83,4.67,6.61,0,*4A
1529492756.02,48274,21.0,74826.5,20.81,3.25,5.37,0,*4E
1529492757.26,48275,21.0,74822.8,20.77,4.15,6.47,0,*46
1529492758.49,48276,21.06,74830.0,20.75,4.71,7.47,0,*44
1529492759.71,48277,21.06,74828.5,20.73,4.67,7.33,0,*47
1529492760.93,48278,21.0,74824.5,20.73,3.55,6.53,0,*49
1529492762.16,48279,21.0,74830.3,20.69,2.39,5.63,0,*48
1529492763.39,48280,21.0,74826.0,20.63,2.13,5.73,0,*4D
1529492764.61,48281,21.0,74826.8,20.59,0.63,4.45,0,*74
1529492765.87,48282,21.0,74826.8,20.55,0.79,4.97,0,*7F
1529492767.1,48283,21.0,74828.3,20.51,1.47,5.95,0,*45
1529492768.3,48284,21.06,74830.0,20.51,2.31,6.93,0,*45
1529492769.54,48285,21.0,74826.0,20.47,2.91,7.69,0,*4D
1529492770.77,48286,21.0,74826.3,20.45,3.23,7.69,0,*44
1529492772.0,48287,21.06,74826.0,20.45,3.15,7.91,0,*47
1529492773.24,48288,21.06,74826.5,20.45,4.05,8.47,0,*4A
1529492774.46,48289,21.06,74830.3,20.45,3.97,8.47,0,*47
1529492775.67,48290,21.0,74828.8,20.43,4.89,8.69,0,*4D
1529492776.84,48291,21.0,74828.0,20.45,3.29,7.45,0,*46
1529492778.05,48292,21.06,74830.3,20.45,4.71,8.69,0,*4E
1529492779.27,48293,21.06,74828.5,20.47,6.33,9.71,0,*41
1529492780.49,48294,21.06,74830.5,20.45,5.51,9.01,0,*44
1529492781.68,48295,21.06,74832.0,20.45,7.01,10.17,0,*7D
1529492782.94,48296,21.0,74830.5,20.47,7.15,9.81,0,*4E
1529492784.17,48297,21.0,74828.8,20.49,7.15,9.35,0,*4E
1529492785.37,48298,21.06,74830.8,20.49,7.47,9.43,0,*47
1529492786.6,48299,21.06,74830.0,20.51,6.87,9.07,0,*42
1529492787.83,48300,21.06,74832.5,20.51,6.39,8.79,0,*4E
1529492789.08,48301,21.06,74834.0,20.51,5.51,7.87,0,*4C
1529492790.29,48302,21.06,74832.0,20.51,6.29,8.45,0,*42
1529492791.48,48303,21.06,74832.0,20.49,6.25,8.05,0,*42
1529492792.74,48304,21.06,74830.5,20.47,5.89,7.27,0,*41
1529492793.96,48305,21.0,74830.0,20.43,5.15,6.65,0,*46
1529492795.16,48306,21.06,74832.8,20.43,5.59,7.01,0,*4E
1529492796.41,48307,21.06,74830.8,20.43,5.73,6.43,0,*40
1529492797.64,48308,21.06,74828.5,20.37,6.17,6.61,0,*4D
1529492798.84,48309,21.06,74830.0,20.33,6.65,7.01,0,*4A
1529492800.08,48310,21.0,74830.8,20.33,6.43,6.87,0,*49
1529492801.29,48311,21.06,74830.3,20.33,6.87,7.09,0,*47
1529492802.56,48312,21.06,74830.3,20.31,6.61,6.51,0,*42
1529492803.74,48313,21.06,74826.5,20.29,5.49,5.23,0,*45
1529492804.95,48314,21.06,74826.0,20.27,5.73,5.29,0,*4F
1529492806.17,48315,21.06,74828.3,20.25,5.15,4.59,0,*4A
1529492807.39,48316,21.06,74828.3,20.21,6.07,5.77,0,*40
1529492808.62,48317,21.06,74830.8,20.21,6.97,6.39,0,*41
1529492809.84,48318,21.06,74830.3,20.15,7.05,6.43,0,*4E
1529492811.02,48319,21.06,74830.3,20.15,7.51,6.79,0,*47
1529492812.21,48320,21.06,74830.0,20.15,7.01,5.99,0,*45
1529492813.44,48321,21.06,74834.0,20.13,6.43,5.41,0,*40
1529492814.67,48322,21.06,74832.5,20.13,6.57,5.41,0,*46
1529492815.86,48323,21.06,74830.8,20.11,5.59,4.41,0,*49
1529492817.06,48324,21.06,74824.5,20.09,5.23,4.07,0,*48
1529492818.3,48325,21.06,74830.3,20.03,5.81,4.63,0,*49
1529492819.54,48326,21.06,74826.0,20.03,6.13,5.01,0,*47
1529492820.74,48327,21.06,74828.3,20.03,7.19,6.07,0,*48
1529492821.93,48328,21.06,74828.3,20.03,6.83,5.59,0,*4D
1529492823.17,48329,21.06,74830.8,19.99,5.89,4.75,0,*43
1529492824.38,48330,21.06,74828.3,19.99,5.07,3.79,0,*46
1529492825.59,48331,21.06,74830.5,19.93,5.63,4.37,0,*42
1529492826.79,48332,21.06,74828.8,19.91,7.01,5.81,0,*49
1529492827.97,48333,21.06,74828.3,19.91,7.33,6.33,0,*43
1529492829.22,48334,21.06,74828.3,19.89,7.69,6.73,0,*46
1529492830.45,48335,21.06,74830.3,19.91,7.61,6.87,0,*4D
1529492831.66,48336,21.06,74828.3,19.89,8.15,7.29,0,*4E
1529492832.89,48337,21.06,74830.0,19.89,8.05,7.15,0,*41
1529492834.13,48338,21.06,74830.0,19.89,7.69,6.57,0,*4C
1529492835.36,48339,21.06,74832.0,19.87,7.77,6.69,0,*41
1529492836.61,48340,21.06,74828.8,19.85,7.15,5.85,0,*48
1529492837.84,48341,21.06,74824.0,19.89,7.59,6.51,0,*47
1529492839.07,48342,21.06,74828.3,19.81,7.65,6.83,0,*4C
1529492840.33,48343,21.06,74830.8,19.81,7.15,6.51,0,*45
1529492841.56,48344,21.06,74830.5,19.81,7.09,6.69,0,*44
1529492842.79,48345,21.06,74830.8,19.81,7.05,6.57,0,*44
1529492844.01,48346,21.06,74830.8,19.79,7.15,6.57,0,*41
1529492845.23,48347,21.06,74830.5,19.79,7.95,7.47,0,*48
1529492846.45,48348,21.06,74826.8,19.77,7.47,7.05,0,*40
1529492847.68,48349,21.06,74828.0,19.77,7.79,7.15,0,*4D
1529492848.91,48350,21.06,74830.5,19.71,8.37,7.87,0,*4D
1529492850.15,48351,21.06,74828.3,19.75,8.89,8.37,0,*49
1529492851.35,48352,21.06,74832.3,19.71,9.71,9.15,0,*49
1529492852.59,48353,21.06,74830.8,19.75,10.23,9.81,0,*7E
1529492853.77,48354,21.06,74828.8,19.75,9.25,8.79,0,*41
1529492854.95,48355,21.06,74830.0,19.75,8.61,8.05,0,*4A
1529492856.13,48356,21.06,74830.0,19.79,8.15,7.41,0,*49
1529492857.34,48357,21.06,74828.0,19.75,8.15,7.27,0,*44
1529492858.54,48358,21.06,74834.5,19.75,8.61,7.83,0,*46
1529492859.73,48359,21.06,74830.0,19.71,8.79,8.09,0,*47
1529492860.93,48360,21.06,74828.8,19.71,8.69,8.13,0,*47
1529492862.15,48361,21.06,74830.5,19.71,8.79,8.13,0,*47
1529492863.38,48362,21.06,74832.5,19.71,9.57,8.75,0,*49
1529492864.58,48363,21.06,74830.8,19.69,9.29,8.45,0,*4B
1529492865.77,48364,21.06,74830.8,19.71,9.03,8.09,0,*45
1529492867.01,48365,21.06,74830.3,19.69,9.39,8.15,0,*49
1529492868.24,48366,21.06,74828.0,19.69,9.19,8.09,0,*45
1529492869.44,48367,21.06,74832.0,19.69,9.21,7.97,0,*47
1529492870.63,48368,21.06,74830.8,19.67,6.83,5.63,0,*48
1529492871.86,48369,21.06,74828.8,19.65,7.15,5.95,0,*4C
1529492873.09,48370,21.06,74828.0,19.63,8.13,7.01,0,*44
1529492874.31,48371,21.06,74828.3,19.63,9.11,8.23,0,*49
1529492875.49,48372,21.06,74830.0,19.61,7.05,5.49,0,*42
1529492876.72,48373,21.06,74830.0,19.59,6.13,4.85,0,*4F
1529492877.92,48374,21.06,74828.3,19.57,8.37,7.05,0,*45
1529492879.15,48375,21.06,74830.8,19.55,8.15,6.87,0,*4D
1529492880.38,48376,21.06,74830.5,19.55,9.67,8.33,0,*4B
1529492881.61,48377,21.06,74828.5,19.57,9.61,8.37,0,*4A
1529492882.84,48378,21.06,74828.0,19.55,9.81,8.65,0,*4E
1529492884.04,48379,21.06,74828.5,19.57,9.71,8.41,0,*44
1529492885.22,48380,21.06,74830.8,19.57,9.47,8.19,0,*4A
1529492886.46,48381,21.06,74830.3,19.61,9.01,7.77,0,*4B
1529492887.69,48382,21.06,74830.0,19.59,9.53,8.09,0,*42
1529492888.9,48383,21.06,74832.0,19.61,9.85,8.61,0,*4D
1529492890.09,48384,21.06,74834.3,19.61,9.21,7.83,0,*47
1529492891.3,48385,21.06,74830.8,19.61,8.89,7.29,0,*45
1529492892.54,48386,21.06,74828.3,19.65,7.83,6.21,0,*4E
1529492893.76,48387,21.06,74828.0,19.63,5.41,3.75,0,*41
1529492895.01,48388,21.06,74828.8,19.63,7.19,5.81,0,*4C
1529492896.22,48389,21.06,74830.0,19.61,7.51,6.51,0,*4D
1529492897.45,48390,21.06,74828.5,19.59,8.51,7.51,0,*40
1529492898.69,48391,21.06,74828.5,19.65,8.79,8.13,0,*4D
1529492899.92,48392,21.06,74828.8,19.65,8.51,8.01,0,*47
1529492901.15,48393,21.06,74824.0,19.69,8.65,8.29,0,*47
1529492902.38,48394,21.06,74822.0,19.69,8.15,7.83,0,*48
1529492903.63,48395,21.06,74826.5,19.69,6.87,6.57,0,*44
1529492904.88,48396,21.06,74822.3,19.69,7.87,7.83,0,*4E
1529492906.14,48397,21.06,74824.3,19.69,8.33,8.33,0,*4B
1529492907.34,48398,21.06,74824.3,19.69,8.65,8.65,0,*44
1529492908.57,48399,21.06,74826.0,19.69,8.83,8.97,0,*40
1529492909.8,48400,21.06,74824.5,19.71,9.11,9.11,0,*4B
1529492910.98,48401,21.06,74826.8,19.75,10.03,9.95,0,*79
1529492912.16,48402,21.06,74826.0,19.75,9.95,9.75,0,*43
1529492913.39,48403,21.06,74828.5,19.77,10.23,9.91,0,*7F
1529492914.63,48404,21.06,74828.8,19.77,10.57,10.17,0,*4D
1529492915.83,48405,21.06,74828.0,19.79,9.71,9.11,0,*40
1529492917.06,48406,21.06,74828.5,19.77,9.15,8.69,0,*41
1529492918.24,48407,21.06,74830.5,19.79,10.09,9.71,0,*73
1529492919.43,48408,21.06,74828.8,19.79,10.17,9.75,0,*77
1529492920.63,48409,21.06,74828.0,19.79,9.43,9.19,0,*45
1529492921.84,48410,21.06,74828.0,19.79,9.33,8.93,0,*49
1529492923.05,48411,21.06,74828.5,19.81,9.71,9.43,0,*45
1529492924.24,48412,21.06,74836.5,19.83,10.55,10.47,0,*46
1529492925.48,48413,21.06,74834.3,19.87,11.79,12.05,0,*48
1529492926.69,48414,21.06,74828.3,19.89,9.33,9.43,0,*4E